Time,TemperatureF,DewpointF,PressureIn,WindDirection,WindDirectionDegrees,WindSpeedMPH,WindSpeedGustMPH,Humidity,HourlyPrecipIn,Conditions,Clouds,dailyrainin,SoftwareType,DateUTC
2013-09-28 00:12:00,63.0,34.0,29.93,North,360,0.0,1.0,34,0.00,,,0.00,,2013-09-28 07:12:00,
2013-09-28 00:22:00,63.0,36.0,29.93,North,360,0.0,1.0,36,0.00,,,0.00,,2013-09-28 07:22:00,
2013-09-28 00:42:00,63.0,35.0,29.93,North,360,0.0,1.0,35,0.00,,,0.00,,2013-09-28 07:42:00,
2013-09-28 00:52:00,63.0,36.0,29.93,North,360,0.0,1.0,36,0.00,,,0.00,,2013-09-28 07:52:00,
2013-09-28 01:13:00,63.0,35.0,29.93,North,360,0.0,2.0,35,0.00,,,0.00,,2013-09-28 08:13:00,
2013-09-28 01:21:00,62.0,34.0,29.93,North,360,0.0,2.0,35,0.00,,,0.00,,2013-09-28 08:21:00,
2013-09-28 01:42:00,62.0,33.0,29.93,North,360,0.0,4.0,34,0.00,,,0.00,,2013-09-28 08:42:00,
2013-09-28 02:11:00,64.0,34.0,29.92,North,360,0.0,1.0,32,0.00,,,0.00,,2013-09-28 09:11:00,
2013-09-28 02:22:00,64.0,34.0,29.92,North,360,0.0,2.0,32,0.00,,,0.00,,2013-09-28 09:22:00,
2013-09-28 03:12:00,63.0,31.0,29.92,North,360,0.0,1.0,30,0.00,,,0.00,,2013-09-28 10:12:00,
2013-09-28 03:22:00,63.0,30.0,29.92,North,360,0.0,2.0,29,0.00,,,0.00,,2013-09-28 10:22:00,
2013-09-28 03:42:00,63.0,31.0,29.92,North,360,0.0,2.0,30,0.00,,,0.00,,2013-09-28 10:42:00,
2013-09-28 04:12:00,62.0,31.0,29.92,North,360,0.0,2.0,31,0.00,,,0.00,,2013-09-28 11:12:00,
2013-09-28 06:52:00,59.0,34.0,29.93,North,360,2.0,4.0,39,0.00,,,0.00,,2013-09-28 13:52:00,
2013-09-28 07:21:00,59.0,31.0,29.94,North,360,0.0,1.0,34,0.00,,,0.00,,2013-09-28 14:21:00,
2013-09-28 07:42:00,60.0,30.0,29.94,North,360,0.0,2.0,32,0.00,,,0.00,,2013-09-28 14:42:00,
2013-09-28 10:23:00,82.0,36.0,29.96,WNW,290,0.0,3.0,19,0.00,,,0.00,,2013-09-28 17:23:00,
2013-09-28 11:12:00,85.0,34.0,29.96,WNW,287,3.0,7.0,16,0.00,,,0.00,,2013-09-28 18:12:00,
2013-09-28 11:22:00,86.0,35.0,29.95,West,260,2.0,7.0,16,0.00,,,0.00,,2013-09-28 18:22:00,
2013-09-28 13:22:00,83.0,46.0,29.95,WSW,248,7.0,11.0,27,0.00,,,0.00,,2013-09-28 20:22:00,
2013-09-28 13:43:00,82.0,45.0,29.95,West,262,8.0,13.0,27,0.00,,,0.00,,2013-09-28 20:43:00,
2013-09-28 13:52:00,83.0,45.0,29.94,WSW,247,5.0,10.0,26,0.00,,,0.00,,2013-09-28 20:52:00,
2013-09-28 14:12:00,83.0,44.0,29.93,SW,216,4.0,10.0,25,0.00,,,0.00,,2013-09-28 21:12:00,
2013-09-28 14:22:00,84.0,44.0,29.93,WSW,242,5.0,9.0,25,0.00,,,0.00,,2013-09-28 21:22:00,
2013-09-28 14:44:00,84.0,42.0,29.93,WSW,258,5.0,10.0,23,0.00,,,0.00,,2013-09-28 21:44:00,
2013-09-28 14:55:00,84.0,43.0,29.92,SW,224,5.0,9.0,24,0.00,,,0.00,,2013-09-28 21:55:00,
2013-09-28 15:13:00,85.0,44.0,29.92,South,186,3.0,8.0,24,0.00,,,0.00,,2013-09-28 22:13:00,
2013-09-28 15:23:00,84.0,43.0,29.92,WSW,237,4.0,9.0,24,0.00,,,0.00,,2013-09-28 22:23:00,
2013-09-28 15:43:00,84.0,41.0,29.91,WSW,242,3.0,7.0,22,0.00,,,0.00,,2013-09-28 22:43:00,
2013-09-28 15:53:00,85.0,42.0,29.91,SW,226,6.0,9.0,22,0.00,,,0.00,,2013-09-28 22:53:00,
2013-09-28 16:12:00,84.0,39.0,29.91,SW,221,7.0,11.0,20,0.00,,,0.00,,2013-09-28 23:12:00,
2013-09-28 16:22:00,82.0,38.0,29.91,SW,219,6.0,12.0,21,0.00,,,0.00,,2013-09-28 23:22:00,
2013-09-28 16:43:00,82.0,38.0,29.91,SW,233,4.0,9.0,21,0.00,,,0.00,,2013-09-28 23:43:00,
2013-09-28 16:52:00,82.0,37.0,29.91,WNW,296,4.0,10.0,20,0.00,,,0.00,,2013-09-28 23:52:00,
2013-09-28 17:11:00,82.0,37.0,29.91,West,267,5.0,8.0,20,0.00,,,0.00,,2013-09-29 00:11:00,
2013-09-28 17:22:00,83.0,36.0,29.91,West,261,4.0,8.0,19,0.00,,,0.00,,2013-09-29 00:22:00,
2013-09-28 17:43:00,83.0,36.0,29.91,SW,233,3.0,7.0,19,0.00,,,0.00,,2013-09-29 00:43:00,
2013-09-28 17:52:00,83.0,35.0,29.90,West,264,3.0,8.0,18,0.00,,,0.00,,2013-09-29 00:52:00,
2013-09-28 18:12:00,82.0,34.0,29.90,West,271,4.0,7.0,18,0.00,,,0.00,,2013-09-29 01:12:00,
2013-09-28 18:21:00,81.0,31.0,29.90,North,355,4.0,7.0,16,0.00,,,0.00,,2013-09-29 01:21:00,
2013-09-28 18:43:00,80.0,34.0,29.91,West,270,4.0,7.0,19,0.00,,,0.00,,2013-09-29 01:43:00,
2013-09-28 18:52:00,79.0,36.0,29.91,WNW,288,3.0,7.0,21,0.00,,,0.00,,2013-09-29 01:52:00,
2013-09-28 19:12:00,78.0,37.0,29.91,WNW,299,2.0,5.0,23,0.00,,,0.00,,2013-09-29 02:12:00,
2013-09-28 19:22:00,77.0,35.0,29.91,WNW,301,3.0,5.0,22,0.00,,,0.00,,2013-09-29 02:22:00,
2013-09-28 19:43:00,76.0,37.0,29.91,WNW,298,1.0,3.0,24,0.00,,,0.00,,2013-09-29 02:43:00,
2013-09-28 19:53:00,75.0,36.0,29.92,NNW,330,2.0,4.0,24,0.00,,,0.00,,2013-09-29 02:53:00,
2013-09-28 20:12:00,73.0,36.0,29.92,NNW,332,1.0,4.0,26,0.00,,,0.00,,2013-09-29 03:12:00,
2013-09-28 20:23:00,73.0,37.0,29.93,NNW,332,0.0,2.0,27,0.00,,,0.00,,2013-09-29 03:23:00,
2013-09-28 20:55:00,71.0,38.0,29.94,NNW,344,3.0,5.0,30,0.00,,,0.00,,2013-09-29 03:55:00,
2013-09-28 21:02:00,-999.0,-99.9,29.95,NNW,344,3.0,6.0,-999,-99.99,,,-99.99,,2013-09-29 04:02:00,
2013-09-28 21:14:00,71.0,39.0,29.95,NNW,344,3.0,6.0,31,0.00,,,0.00,,2013-09-29 04:14:00,
2013-09-28 21:24:00,71.0,40.0,29.95,NNW,336,1.0,4.0,33,0.00,,,0.00,,2013-09-29 04:24:00,
2013-09-28 21:54:00,70.0,40.0,29.96,NNW,336,0.0,2.0,33,0.00,,,0.00,,2013-09-29 04:54:00,
2013-09-28 22:13:00,69.0,39.0,29.97,NNW,336,0.0,1.0,34,0.00,,,0.00,,2013-09-29 05:13:00,
2013-09-28 22:22:00,68.0,39.0,29.97,NNW,336,0.0,2.0,34,0.00,,,0.00,,2013-09-29 05:22:00,
2013-09-28 22:52:00,67.0,39.0,29.98,NNW,336,0.0,0.0,36,0.00,,,0.00,,2013-09-29 05:52:00,
2013-09-28 23:12:00,66.0,39.0,29.99,NNW,336,0.0,2.0,37,0.00,,,0.00,,2013-09-29 06:12:00,
2013-09-28 23:22:00,66.0,39.0,29.99,NNW,336,1.0,2.0,37,0.00,,,0.00,,2013-09-29 06:22:00,
2013-09-28 23:42:00,65.0,37.0,29.99,NNW,336,0.0,1.0,36,0.00,,,0.00,,2013-09-29 06:42:00,
2013-09-28 23:52:00,65.0,39.0,29.99,NNW,336,0.0,1.0,38,0.00,,,0.00,,2013-09-29 06:52:00,